Location: Long Island Community Building
(39.9491°N, 99.5338°W)
Time: 06:43:26
(UTC+00:00)

Cosmos 1110 Rocket - Pass Details

Date: 06 December 2019
Orbit: 752 x 782 km, 74.0° (Epoch: 26 January)

Event Time Altitude Azimuth Distance (km) Brightness Sun altitude
Rises 23:41:19 0° 338° (NNW) 3,214 7.2 -5.7°
Reaches altitude 10° 23:43:41 10° 337° (NNW) 2,288 6.5 -6.1°
Maximum altitude 23:48:51 71° 254° (WSW) 803 4.4 -7.0°
Drops below altitude 10° 23:54:00 10° 171° (S) 2,288 6.7 -7.9°
Sets 23:56:23 0° 169° (S) 3,215 7.4 -8.3°
